Tracking 29493 objects as of 8-Sep-2024
HD Live streaming from Space Station
objects crossing your sky now

HINCUBE

Track HINCUBE now!
10-day predictions
HINCUBE is classified as:


NORAD ID: 39445
Int'l Code: 2013-066AF
Perigee: 562.5 km
Apogee: 624.7 km
Inclination: 97.7 °
Period: 96.4 minutes
Semi major axis: 6964 km
RCS: Unknown
Launch date: November 21, 2013
Source: Norway (NOR)
Launch site: Orenburg, Russia (OREN)

Uplink (MHz):
Downlink (MHz): 437.305
Beacon (MHz):
Mode:
Call sign:
Status: Inactive

Your satellite tracking list
Your tracking list is empty




NASA's NSSDC Master Catalog

Two Line Element Set (TLE):
1 39445U 13066AF  24251.85611001  .00018332  00000-0  17019-2 0  9994
2 39445  97.7283 209.0455 0044679 227.1143 132.6322 14.93684650582367
Source of the keplerian elements: AFSPC